Location: Unspecified
(35.7250°N, 0.0000°E)
Time: 14:20:01
(UTC+00:00)

Tiros 1 - Pass Details

Date: 25 June 2019
Orbit: 630 x 664 km, 48.4° (Epoch: 16 July)

Event Time Altitude Azimuth Distance (km) Brightness Sun altitude
Rises 19:59:23 0° 196° (SSW) 2,964 10.3 -7.6°
Reaches altitude 10° 20:02:10 10° 181° (S) 2,051 9.4 -8.0°
Maximum altitude 20:05:44 21° 132° (SE) 1,437 8.3 -8.6°
Drops below altitude 10° 20:09:18 10° 82° (E) 2,043 9.3 -9.2°
Sets 20:12:04 0° 67° (ENE) 2,949 10.2 -9.6°
